This is the latest recevied weather packets stored in our database for station/object Huerbel. If no packets are shown the sender has not sent any weather packets the latest 10 day(s).
| Time | Temp. | Humidity | Pressure | Rain* | Wind** | Luminosity | Snow |
|---|---|---|---|---|---|---|---|
| 1777555931 | 15.56° C | 26% | 1025.8 hPa | 0 mm | - | - | - |
| 1777554130 | 16.11° C | 24% | 1025.9 hPa | 0 mm | - | - | - |
| 1777552332 | 15° C | 26% | 1026.2 hPa | 0 mm | - | - | - |
| 1777550530 | 15° C | 31% | 1026.3 hPa | 0 mm | - | - | - |
| 1777548730 | 14.44° C | 32% | 1026.7 hPa | 0 mm | - | - | - |
| 1777546931 | 13.89° C | 32% | 1026.9 hPa | 0 mm | - | - | - |
| 1777545130 | 12.78° C | 35% | 1026.9 hPa | 0 mm | - | - | - |
| 1777543330 | 12.22° C | 37% | 1027 hPa | 0 mm | - | - | - |
| 1777541531 | 11.67° C | 42% | 1027 hPa | 0 mm | - | - | - |
| 1777539731 | 10.56° C | 40% | 1027 hPa | 0 mm | - | - | - |
| 1777537942 | 9.44° C | 43% | 1027.1 hPa | 0 mm | - | - | - |
| 1777536137 | 8.89° C | 45% | 1026.9 hPa | 0 mm | - | - | - |
| 1777534332 | 8.33° C | 44% | 1027 hPa | 0 mm | - | - | - |
| 1777532532 | 7.22° C | 44% | 1026.9 hPa | 0 mm | - | - | - |
| 1777530736 | 6.11° C | 46% | 1026.7 hPa | 0 mm | - | - | - |
| 1777528931 | 5° C | 47% | 1026.6 hPa | 0 mm | - | - | - |
| 1777527131 | 3.89° C | 50% | 1026.5 hPa | 0 mm | - | - | - |
| 1777525331 | 3.33° C | 53% | 1026.1 hPa | 0 mm | - | - | - |
| 1777523532 | 3.89° C | 53% | 1026 hPa | 0 mm | - | - | - |
| 1777521732 | 3.89° C | 53% | 1025.8 hPa | 0 mm | - | - | - |
| 1777519931 | 4.44° C | 54% | 1025.6 hPa | 0 mm | - | - | - |
| 1777518132 | 5° C | 53% | 1025.5 hPa | 0 mm | - | - | - |
| 1777514532 | 5.56° C | 53% | 1025.5 hPa | 0 mm | - | - | - |
| 1777512731 | 6.11° C | 53% | 1025.2 hPa | 0 mm | - | - | - |
| 1777510932 | 6.67° C | 51% | 1025.2 hPa | 0 mm | - | - | - |
* Rain since midnight (hover to see other rain measurements)
** Current wind speed in m/s (hover to see current wind gust speed)